Location: Sihaung
(22.8641°N, 94.0549°E)
Time: 13:56:47
(UTC+00:00)

USA 234 - Pass Details

Date: 03 March 2021
Orbit: 1102 x 1105 km, 123.0° (Epoch: 08 April)

Event Time Altitude Azimuth Distance (km) Brightness Sun altitude
Rises 12:33:17 0° 31° (NNE) 3,916 5.8 -11.2°
Reaches altitude 10° 12:35:50 10° 26° (NNE) 2,958 5.2 -11.8°
Maximum altitude 12:42:06 51° 313° (NW) 1,356 4.1 -13.2°
Drops below altitude 10° 12:48:22 10° 239° (WSW) 2,953 6.5 -14.7°
Sets 12:50:55 0° 234° (SW) 3,910 7.1 -15.3°
